Weather in Usmanka

Russia / Samara Oblast     52°49′31″N   51°41′51″E
temp.,
°C
wind,
m/s
gust,
m/s
humid.,
%
clouds,
%
prec.,
mm/h
press.,
hPa
HPBL,
m
28 february, sun
sun2801:00−1wnw3598100 0.9 998208
04:00−10nw6995100 1.5 999243
07:00−13nw7119499 0.4 1001331
10:00−14nw71195100 0.5 1003327
13:00−13nw71094100 0.1 1006389
16:00−13nw71093100 0.2 1008457
19:00−14nw61095100 0.2 1011347
22:00−15nw5996100 0.4 1013266
1 march, mon
mon101:00−16nw4896100 0.2 1015230
04:00−16nw4897100 0.4 1016203
07:00−17nw4797100 0.2 1018212
10:00−18nw469798 0.2 1020196
13:00−17nw469695 0.0 1021254
16:00−16nw579597 0.0 1022323
19:00−19wnw349957 0.0 102237
22:00−20w3310039 0.0 102325
2 march, tue
tue201:00−20wsw449976 0.0 102266
04:00−19sw489946 0.0 1019126
07:00−17ssw6119696 0.0 1016228
10:00−13ssw8139597 0.0 1014325
13:00−9ssw91494100 0.4 1010526
16:00−5ssw91493100 1.3 1007784
19:00−4ssw81594100 0.5 1004673
22:00−3ssw71394100 0.9 1002521
3 march, wed
wed301:00−3sw6109698 0.6 1000322
04:00−3wnw589699 1.0 1000295
07:00−6w4796100 0.1 1000151
10:00−4wnw4796100 0.6 1001334
13:00−2wnw5796100 0.4 1002514
16:00−2nw5896100 0.8 1004520
19:00−3wnw4997100 0.2 1004312
22:00−4nw499299 0.3 1007408
4 march, thu
thu401:00−5wnw5109699 0.3 1008300
04:00−7nw6109699 0.4 1010308
07:00−10nw51096100 0.1 1012260
10:00−10wnw5896100 0.2 1014262
13:00−8w579494 0.0 1015293
16:00−8wsw6119159 0.0 1015361
19:00−9sw7149453 0.0 1014349
22:00−6sw9169276 0.1 1013580